Regional Weather Roundup
Issued by NWS

Home | Current Version | Previous Version | Graphics & Text | Print | Product List | Glossary Off
Versions: 1 2 3 4 5 6 7 8 9 10 11 12 13 14 15 16 17 18 19 20 21 22 23 24 25 26 27 28 29 30 31 32 33 34 35 36 37 38 39 40 41 42 43 44 45 46 47 48 49 50

000
ASUS43 KMKX 301700
RWRWI

WISCONSIN REGIONAL WEATHER ROUNDUP
NATIONAL WEATHER SERVICE MILWAUKEE/SULLIVAN WI
1200 PM CDT THU MAR 30 2017

NOTE: "FAIR" INDICATES FEW OR NO CLOUDS BELOW 12,000 FEET WITH NO
SIGNIFICANT WEATHER AND/OR OBSTRUCTIONS TO VISIBILITY.

WIZ001-002-006>008-014>016-023>028-301800-
NORTHWEST WISCONSIN

CITY           SKY/WX    TMP DP  RH WIND       PRES   REMARKS
SUPERIOR ARPT  PTSUNNY   38  33  84 NE16G23   29.99F WCI  28
ASHLAND        CLOUDY    43  30  60 N13       29.98F
HAYWARD        CLOUDY    45  31  58 E9        29.94F
SIREN          CLOUDY    44  32  62 E6        29.93F
CUMBERLAND     CLOUDY    41  32  70 E10       29.92F
RICE LAKE      CLOUDY    42  33  69 E5G17     29.94S
CHETEK         CLOUDY    40  33  75 E7        29.92S
LADYSMITH      CLOUDY    41  33  72 E12       29.94S
EAU CLAIRE     NOT AVBL
MENOMONIE      CLOUDY    40  35  82 NE14G20   29.89F WCI  32
NEW RICHMOND   CLOUDY    43  33  67 E13G20    29.90S
OSCEOLA        CLOUDY    44  35  69 E14       29.93F
$$

WIZ003>005-009-010-017-018-301800-
NORTH CENTRAL WISCONSIN

CITY           SKY/WX    TMP DP  RH WIND       PRES   REMARKS
MANITOWISH WTR CLOUDY    38  28  65 E7        29.94F WCI  33
ARBOR VITAE    CLOUDY    42  31  65 E8        29.93F
WOODRUFF       CLOUDY    42  31  65 E8        29.93F
RHINELANDER    CLOUDY    42  30  62 E13       29.93F
EAGLE RIVER    CLOUDY    40  26  55 E10       29.94F WCI  34
LAND O LAKES   CLOUDY    38  24  58 E9        29.98F WCI  31
PHILLIPS       CLOUDY    41  31  68 E10G16    29.91F
TOMAHAWK       CLOUDY    41  30  64 E10G16    29.93F
MEDFORD        CLOUDY    37  32  82 E14       29.89F WCI  28
MERRILL        CLOUDY    39  32  77 E14G21    29.92F WCI  30
$$

WIZ029-030-035-036-043>047-301800-
CENTRAL WISCONSIN

CITY           SKY/WX    TMP DP  RH WIND       PRES   REMARKS
WAUSAU         CLOUDY    36  32  85 E16       29.89F WCI  26
MOSINEE        LGT RAIN  36  36 100 E18       29.89F WCI  25
MARSHFIELD     CLOUDY    37  34  89 E15G26    29.85F WCI  28
STEVENS POINT  CLOUDY    33  32  97 E13G21    29.90F WCI  24
WAUPACA        CLOUDY    36  34  92 NE9G20    29.91F WCI  29
WAUTOMA        NOT AVBL
WISC RAPIDS    CLOUDY    37  35  92 E15G23    29.86F WCI  28
CAMP DOUGLAS   LGT RAIN  37  36  93 E15       29.83F WCI  28
$$

WIZ011>013-019>022-031-037>040-048>050-301800-
NORTHEAST WISCONSIN

CITY           SKY/WX    TMP DP  RH WIND       PRES   REMARKS
ANTIGO         CLOUDY    35  32  90 E13       29.93F WCI  26
SHAWANO        CLOUDY    36  33  90 NE14      29.94F WCI  27
OCONTO         CLOUDY    33  32  96 NE12      29.97F WCI  24
STURGEON BAY   LGT SNOW  34  33  96 NE13G18   29.96F FOG     WCI  25
GREEN BAY      LGT SNOW  34  34 100 NE16      29.92F FOG     WCI  24
MANITOWOC      NOT AVBL
APPLETON       CLOUDY    34  34 100 NE18G24   29.88F WCI  23
CLINTONVILLE   DRIZZLE   34  32  93 NE13      29.93F WCI  25
OSHKOSH        LGT RAIN  36  34  92 NE15      29.86F FOG     WCI  27
$$

WIZ032>034-041-042-053>061-301800-
SOUTHWEST WISCONSIN

CITY           SKY/WX    TMP DP  RH WIND       PRES   REMARKS
LA CROSSE      CLOUDY    41  36  82 E12       29.79F
SPARTA         CLOUDY    38  37  96 E13G18    29.83F WCI  30
VIROQUA        CLOUDY    37  37  97 E17       29.78S WCI  28
BOSCOBEL       LGT RAIN  40  36  86 NE13G22   29.76F WCI  32
PRAIRIE DU CHI CLOUDY    38  37  97 NE7       29.76S WCI  33
PLATTEVILLE    CLOUDY    39  39 100 NE32G43   29.61F WCI  27
$$

WIZ056-057-062-063-064-067-068-301800-
SOUTH CENTRAL WISCONSIN

CITY           SKY/WX    TMP DP  RH WIND       PRES   REMARKS
REEDSBURG      LGT RAIN  36  36 100 E10G16    29.81S WCI  28
BARABOO/DELLS  NOT AVBL
LONE ROCK      LGT RAIN  39  36  87 E12       29.78F FOG     WCI  32
MINERAL POINT  RAIN      37  37 100 NE18G25   29.73F WCI  27
MADISON        LGT RAIN  38  36  92 NE16G25   29.77F WCI  29
MIDDLETON      CLOUDY    39  39  98 E10G20    29.78F WCI  33
WATERTOWN      LGT RAIN  37  37 100 E21G28    29.78F WCI  27
MONROE         RAIN      37  37 100 NE12G21   29.72F WCI  30
JANESVILLE     LGT RAIN  39  39 100 E12G17    29.74R WCI  32
$$

WIZ051-052-058>065-066-070>072-301800-
SOUTHEAST WISCONSIN

CITY           SKY/WX    TMP DP  RH WIND       PRES   REMARKS
MILWAUKEE      LGT RAIN  39  36  89 NE13      29.80F WCI  31
WAUKESHA       LGT RAIN  36  36 100 E17G30    29.80F FOG     WCI  25
MILWAUKEE/TIMM LGT RAIN  37  34  87 NE13G20   29.82F WCI  29
RACINE         LGT RAIN  39  36  89 NE13      29.79F FOG     WCI  31
KENOSHA        LGT RAIN  40  38  93 E15       29.76F FOG     WCI  32
FOND DU LAC    LGT RAIN  39  35  86 NE17G25   29.85F WCI  30
SHEBOYGAN      LGT RAIN  37  35  92 NE22      29.86F WCI  26
WEST BEND      LGT RAIN  36  36 100 E18G29    29.83F WCI  25
JUNEAU         LGT RAIN  37  35  94 E15G25    29.81F WCI  27
$$

LSZ147-162-301800-
LAKE SUPERIOR

STATION/POSITION TIME  TEMP    WIND        PRES    WAVE
                       AIR SEA DIR/SP/G            HT/PER
                 (UTC) (F)     (DEG/KT/KT) (MB)    (FT/S)
DEVILS ISLAND    1600   35      40/ 15/ 15 1017.5F
PORT WING        1630   36      40/ 17/ 18 1015.9F
SAXON HARBOR     1630   36      10/  2/  4 1015.6F
$$

LMZ867-665-643>646-301800-
LAKE MICHIGAN

STATION/POSITION TIME  TEMP    WIND        PRES    WAVE
                       AIR SEA DIR/SP/G            HT/PER
                 (UTC) (F)     (DEG/KT/KT) (MB)    (FT/S)
CHAMBERS ISLAND  1640   33      30/ 11/ 14 1015.6F
NORTHPORT PIER   1630   33      60/ 13/ 17 1016.6F
SISTER BAY       1551   34     100/ 10/ 15   N/A
KEWAUNEE LAKESHO 1630   35      50/ 13/ 17 1013.6F
SHEBOYGAN LAKESH 1600   37      40/ 21/ 24 1012.4F
PORT WASHINGTON  1630   38      50/ 15/ 19 1011.9F
MILWAUKEE LAKESH 1630   37      50/ 15/ 17   N/A
KENOSHA   LAKESH 1600   39      70/  8/ 11 1009.5
$$

TC  - TEMPERATURE IN CELSIUS
VSB - VISIBILITY IN STATUTE MILES
WCI - WIND CHILL INDEX
HX  - HEAT INDEX





USA.gov is the U.S. government's official web portal to all federal, state and local government web resources and services.